Time,TemperatureF,DewpointF,PressureIn,WindDirection,WindDirectionDegrees,WindSpeedMPH,WindSpeedGustMPH,Humidity,HourlyPrecipIn,Conditions,Clouds,dailyrainin,SoftwareType,DateUTC
2013-05-22 00:04:00,65.1,62.4,29.66,South,180,4.7,-999.0,91,-99.99,,,0.00,Acu-Link.com,2013-05-22 04:04:00,
2013-05-22 00:20:00,65.1,62.4,29.67,SSE,157,6.3,-999.0,91,-99.99,,,0.00,Acu-Link.com,2013-05-22 04:20:00,
2013-05-22 00:35:00,65.1,62.4,29.67,South,180,5.3,-999.0,91,-99.99,,,0.00,Acu-Link.com,2013-05-22 04:35:00,
2013-05-22 00:50:00,64.8,62.4,29.67,SSE,157,3.7,-999.0,92,-99.99,,,0.00,Acu-Link.com,2013-05-22 04:50:00,
2013-05-22 01:05:00,64.4,62.0,29.66,SSE,157,7.3,-999.0,92,-99.99,,,0.00,Acu-Link.com,2013-05-22 05:05:00,
2013-05-22 01:20:00,64.2,62.1,29.66,SSE,157,2.7,-999.0,93,-99.99,,,0.00,Acu-Link.com,2013-05-22 05:20:00,
2013-05-22 01:35:00,64.6,62.2,29.65,SE,135,4.2,-999.0,92,-99.99,,,0.00,Acu-Link.com,2013-05-22 05:35:00,
2013-05-22 01:50:00,64.4,62.0,29.65,SSE,157,4.7,-999.0,92,-99.99,,,0.00,Acu-Link.com,2013-05-22 05:50:00,
2013-05-22 02:06:00,64.4,62.0,29.65,South,180,5.3,-999.0,92,-99.99,,,0.00,Acu-Link.com,2013-05-22 06:06:00,
2013-05-22 02:21:00,64.6,62.2,29.65,SW,225,5.3,-999.0,92,-99.99,,,0.00,Acu-Link.com,2013-05-22 06:21:00,
2013-05-22 02:36:00,64.6,62.2,29.64,SSE,157,5.8,-999.0,92,-99.99,,,0.00,Acu-Link.com,2013-05-22 06:36:00,
2013-05-22 02:51:00,64.2,62.1,29.64,SSE,157,2.7,-999.0,93,-99.99,,,0.00,Acu-Link.com,2013-05-22 06:51:00,
2013-05-22 03:06:00,64.6,62.2,29.63,SSW,202,4.2,-999.0,92,-99.99,,,0.00,Acu-Link.com,2013-05-22 07:06:00,
2013-05-22 03:22:00,64.8,62.4,29.62,SE,135,4.2,-999.0,92,-99.99,,,0.00,Acu-Link.com,2013-05-22 07:22:00,
2013-05-22 03:37:00,64.2,62.1,29.61,SSW,202,3.7,-999.0,93,-99.99,,,0.00,Acu-Link.com,2013-05-22 07:37:00,
2013-05-22 03:52:00,63.9,62.1,29.60,SSE,157,3.7,-999.0,94,-99.99,,,0.00,Acu-Link.com,2013-05-22 07:52:00,
2013-05-22 04:08:00,63.9,62.1,29.60,South,180,4.7,-999.0,94,-99.99,,,0.00,Acu-Link.com,2013-05-22 08:08:00,
2013-05-22 04:23:00,63.7,61.9,29.60,South,180,3.7,-999.0,94,-99.99,,,0.00,Acu-Link.com,2013-05-22 08:23:00,
2013-05-22 04:38:00,63.5,61.7,29.61,SE,135,3.7,-999.0,94,-99.99,,,0.00,Acu-Link.com,2013-05-22 08:38:00,
2013-05-22 04:53:00,63.3,61.8,29.61,SE,135,5.3,-999.0,95,-99.99,,,0.00,Acu-Link.com,2013-05-22 08:53:00,
2013-05-22 05:08:00,63.3,61.8,29.61,SE,135,3.2,-999.0,95,-99.99,,,0.00,Acu-Link.com,2013-05-22 09:08:00,
2013-05-22 05:24:00,63.0,61.8,29.60,South,180,5.3,-999.0,96,-99.99,,,0.00,Acu-Link.com,2013-05-22 09:24:00,
2013-05-22 05:39:00,63.0,61.8,29.60,South,180,5.3,-999.0,96,-99.99,,,0.00,Acu-Link.com,2013-05-22 09:39:00,
2013-05-22 05:54:00,63.0,61.8,29.61,SSE,157,4.2,-999.0,96,-99.99,,,0.00,Acu-Link.com,2013-05-22 09:54:00,
2013-05-22 06:09:00,62.8,61.9,29.62,South,180,2.7,-999.0,97,-99.99,,,0.00,Acu-Link.com,2013-05-22 10:09:00,
2013-05-22 06:25:00,62.4,61.8,29.61,SE,135,3.2,-999.0,98,-99.99,,,0.00,Acu-Link.com,2013-05-22 10:25:00,
2013-05-22 06:40:00,62.8,62.2,29.63,South,180,2.7,-999.0,98,-99.99,,,0.00,Acu-Link.com,2013-05-22 10:40:00,
2013-05-22 06:55:00,62.8,62.2,29.63,SSE,157,4.2,-999.0,98,-99.99,,,0.00,Acu-Link.com,2013-05-22 10:55:00,
2013-05-22 07:10:00,63.3,62.4,29.64,South,180,4.2,-999.0,97,-99.99,,,0.00,Acu-Link.com,2013-05-22 11:10:00,
2013-05-22 07:25:00,64.2,63.0,29.64,South,180,3.2,-999.0,96,-99.99,,,0.00,Acu-Link.com,2013-05-22 11:25:00,
2013-05-22 07:41:00,64.9,63.1,29.64,SSE,157,4.2,-999.0,94,-99.99,,,0.00,Acu-Link.com,2013-05-22 11:41:00,
2013-05-22 07:56:00,66.0,63.6,29.64,SSW,202,6.8,-999.0,92,-99.99,,,0.00,Acu-Link.com,2013-05-22 11:56:00,
2013-05-22 08:11:00,67.5,64.5,29.63,South,180,5.8,-999.0,90,-99.99,,,0.00,Acu-Link.com,2013-05-22 12:11:00,
2013-05-22 08:26:00,68.5,64.5,29.63,SSE,157,3.7,-999.0,87,-99.99,,,0.00,Acu-Link.com,2013-05-22 12:26:00,
2013-05-22 08:41:00,69.1,64.7,29.63,SSE,157,6.8,-999.0,86,-99.99,,,0.00,Acu-Link.com,2013-05-22 12:41:00,
2013-05-22 08:56:00,69.4,64.7,29.62,South,180,3.7,-999.0,85,-99.99,,,0.00,Acu-Link.com,2013-05-22 12:56:00,
2013-05-22 09:11:00,69.6,64.9,29.63,SSW,202,8.3,-999.0,85,-99.99,,,0.00,Acu-Link.com,2013-05-22 13:11:00,
2013-05-22 09:27:00,69.4,64.7,29.64,South,180,4.2,-999.0,85,-99.99,,,0.00,Acu-Link.com,2013-05-22 13:27:00,
2013-05-22 09:42:00,70.7,65.3,29.64,West,270,5.3,-999.0,83,-99.99,,,0.00,Acu-Link.com,2013-05-22 13:42:00,
2013-05-22 09:57:00,72.1,65.6,29.64,West,270,5.8,-999.0,80,-99.99,,,0.00,Acu-Link.com,2013-05-22 13:57:00,
2013-05-22 10:12:00,72.5,65.2,29.65,SSE,157,5.8,-999.0,78,-99.99,,,0.00,Acu-Link.com,2013-05-22 14:12:00,
2013-05-22 10:27:00,73.4,65.4,29.65,SSW,202,6.3,-999.0,76,-99.99,,,0.00,Acu-Link.com,2013-05-22 14:27:00,
2013-05-22 10:43:00,73.8,65.7,29.64,SSE,157,3.7,-999.0,76,-99.99,,,0.00,Acu-Link.com,2013-05-22 14:43:00,
2013-05-22 10:58:00,73.0,64.6,29.64,West,270,6.3,-999.0,75,-99.99,,,0.00,Acu-Link.com,2013-05-22 14:58:00,
2013-05-22 11:13:00,73.2,64.4,29.64,ESE,112,6.3,-999.0,74,-99.99,,,0.00,Acu-Link.com,2013-05-22 15:13:00,
2013-05-22 11:28:00,75.4,66.5,29.64,West,270,6.3,-999.0,74,-99.99,,,0.00,Acu-Link.com,2013-05-22 15:28:00,
2013-05-22 11:43:00,74.7,63.8,29.65,South,180,5.3,-999.0,69,-99.99,,,0.00,Acu-Link.com,2013-05-22 15:43:00,
2013-05-22 11:58:00,77.2,64.1,29.64,South,180,6.8,-999.0,64,-99.99,,,0.00,Acu-Link.com,2013-05-22 15:58:00,
2013-05-22 12:13:00,76.6,62.6,29.64,SSW,202,5.8,-999.0,62,-99.99,,,0.00,Acu-Link.com,2013-05-22 16:13:00,
2013-05-22 12:28:00,76.8,64.6,29.64,SW,225,7.3,-999.0,66,-99.99,,,0.00,Acu-Link.com,2013-05-22 16:28:00,
2013-05-22 12:43:00,76.3,63.7,29.63,SE,135,7.3,-999.0,65,-99.99,,,0.00,Acu-Link.com,2013-05-22 16:43:00,
2013-05-22 12:59:00,75.7,64.8,29.64,South,180,2.7,-999.0,69,-99.99,,,0.00,Acu-Link.com,2013-05-22 16:59:00,
2013-05-22 13:14:00,75.7,64.4,29.64,SSE,157,8.3,-999.0,68,-99.99,,,0.00,Acu-Link.com,2013-05-22 17:14:00,
2013-05-22 13:29:00,75.4,64.9,29.64,SSW,202,2.7,-999.0,70,-99.99,,,0.00,Acu-Link.com,2013-05-22 17:29:00,
2013-05-22 13:44:00,74.7,64.2,29.63,SE,135,3.7,-999.0,70,-99.99,,,0.00,Acu-Link.com,2013-05-22 17:44:00,
2013-05-22 13:59:00,76.1,65.6,29.63,West,270,5.3,-999.0,70,-99.99,,,0.00,Acu-Link.com,2013-05-22 17:59:00,
2013-05-22 14:14:00,75.4,64.5,29.64,SE,135,4.2,-999.0,69,-99.99,,,0.00,Acu-Link.com,2013-05-22 18:14:00,
2013-05-22 14:29:00,74.8,63.5,29.63,SW,225,4.7,-999.0,68,-99.99,,,0.00,Acu-Link.com,2013-05-22 18:29:00,
2013-05-22 14:45:00,75.2,63.9,29.63,ESE,112,4.2,-999.0,68,-99.99,,,0.00,Acu-Link.com,2013-05-22 18:45:00,
2013-05-22 15:00:00,76.6,64.4,29.62,WSW,247,4.2,-999.0,66,-99.99,,,0.00,Acu-Link.com,2013-05-22 19:00:00,
2013-05-22 15:15:00,75.0,62.9,29.62,WSW,247,6.3,-999.0,66,-99.99,,,0.00,Acu-Link.com,2013-05-22 19:15:00,
2013-05-22 15:30:00,74.7,63.8,29.62,South,180,5.8,-999.0,69,-99.99,,,0.00,Acu-Link.com,2013-05-22 19:30:00,
2013-05-22 15:45:00,73.9,64.3,29.62,SSE,157,5.8,-999.0,72,-99.99,,,0.00,Acu-Link.com,2013-05-22 19:45:00,
2013-05-22 16:00:00,74.5,65.3,29.61,SSE,157,3.7,-999.0,73,-99.99,,,0.00,Acu-Link.com,2013-05-22 20:00:00,
2013-05-22 16:15:00,73.9,64.7,29.59,SE,135,5.3,-999.0,73,-99.99,,,0.00,Acu-Link.com,2013-05-22 20:15:00,
2013-05-22 16:30:00,74.3,65.1,29.58,SSW,202,2.7,-999.0,73,-99.99,,,0.00,Acu-Link.com,2013-05-22 20:30:00,
2013-05-22 16:46:00,75.4,65.3,29.57,ESE,112,3.7,-999.0,71,-99.99,,,0.00,Acu-Link.com,2013-05-22 20:46:00,
2013-05-22 17:01:00,76.3,65.8,29.57,SSW,202,4.2,-999.0,70,-99.99,,,0.00,Acu-Link.com,2013-05-22 21:01:00,
2013-05-22 17:16:00,75.6,65.1,29.56,South,180,5.8,-999.0,70,-99.99,,,0.00,Acu-Link.com,2013-05-22 21:16:00,
2013-05-22 17:31:00,75.2,65.1,29.56,South,180,8.9,-999.0,71,-99.99,,,0.00,Acu-Link.com,2013-05-22 21:31:00,
2013-05-22 17:46:00,75.0,64.9,29.56,WSW,247,2.7,-999.0,71,-99.99,,,0.00,Acu-Link.com,2013-05-22 21:46:00,
2013-05-22 18:01:00,75.0,64.1,29.57,SW,225,7.3,-999.0,69,-99.99,,,0.00,Acu-Link.com,2013-05-22 22:01:00,
2013-05-22 18:16:00,74.8,64.8,29.56,SE,135,8.3,-999.0,71,-99.99,,,0.00,Acu-Link.com,2013-05-22 22:16:00,
2013-05-22 18:32:00,74.3,65.1,29.57,SSE,157,5.3,-999.0,73,-99.99,,,0.00,Acu-Link.com,2013-05-22 22:32:00,
2013-05-22 18:47:00,73.8,65.4,29.57,SSE,157,2.7,-999.0,75,-99.99,,,0.00,Acu-Link.com,2013-05-22 22:47:00,
2013-05-22 19:02:00,70.5,66.8,29.60,West,270,6.3,-999.0,88,-99.99,,,0.01,Acu-Link.com,2013-05-22 23:02:00,
2013-05-22 19:17:00,66.7,65.2,29.60,West,270,3.2,-999.0,95,-99.99,,,0.18,Acu-Link.com,2013-05-22 23:17:00,
2013-05-22 19:32:00,66.2,64.7,29.60,West,270,1.7,-999.0,95,-99.99,,,0.23,Acu-Link.com,2013-05-22 23:32:00,
2013-05-22 19:47:00,66.6,64.5,29.58,South,180,2.7,-999.0,93,-99.99,,,0.24,Acu-Link.com,2013-05-22 23:47:00,
2013-05-22 20:03:00,66.2,64.1,29.59,SSW,202,4.7,-999.0,93,-99.99,,,0.24,Acu-Link.com,2013-05-23 00:03:00,
2013-05-22 20:18:00,65.5,64.3,29.60,SSE,157,3.7,-999.0,96,-99.99,,,0.24,Acu-Link.com,2013-05-23 00:18:00,
2013-05-22 20:33:00,65.1,63.9,29.59,SSW,202,2.7,-999.0,96,-99.99,,,0.24,Acu-Link.com,2013-05-23 00:33:00,
2013-05-22 20:48:00,64.8,64.2,29.60,SE,135,2.7,-999.0,98,-99.99,,,0.24,Acu-Link.com,2013-05-23 00:48:00,
2013-05-22 21:03:00,64.8,64.2,29.60,SSW,202,2.2,-999.0,98,-99.99,,,0.24,Acu-Link.com,2013-05-23 01:03:00,
2013-05-22 21:19:00,64.4,63.8,29.61,SSE,157,2.2,-999.0,98,-99.99,,,0.24,Acu-Link.com,2013-05-23 01:19:00,
2013-05-22 21:34:00,63.9,63.3,29.61,South,180,3.7,-999.0,98,-99.99,,,0.24,Acu-Link.com,2013-05-23 01:34:00,
2013-05-22 21:49:00,63.7,63.1,29.60,SSE,157,2.2,-999.0,98,-99.99,,,0.24,Acu-Link.com,2013-05-23 01:49:00,
2013-05-22 22:05:00,63.7,63.4,29.60,SSE,157,1.7,-999.0,99,-99.99,,,0.24,Acu-Link.com,2013-05-23 02:05:00,
2013-05-22 22:20:00,63.7,63.4,29.60,SE,135,1.1,-999.0,99,-99.99,,,0.24,Acu-Link.com,2013-05-23 02:20:00,
2013-05-22 22:35:00,64.0,63.7,29.60,SE,135,0.0,-999.0,99,-99.99,,,0.24,Acu-Link.com,2013-05-23 02:35:00,
2013-05-22 22:51:00,64.0,63.7,29.60,WSW,247,0.0,-999.0,99,-99.99,,,0.24,Acu-Link.com,2013-05-23 02:51:00,
2013-05-22 23:06:00,64.4,64.1,29.61,SSE,157,1.7,-999.0,99,-99.99,,,0.24,Acu-Link.com,2013-05-23 03:06:00,
2013-05-22 23:21:00,64.6,64.3,29.61,SSE,157,2.7,-999.0,99,-99.99,,,0.24,Acu-Link.com,2013-05-23 03:21:00,
2013-05-22 23:37:00,64.4,64.1,29.62,SSE,157,2.2,-999.0,99,-99.99,,,0.24,Acu-Link.com,2013-05-23 03:37:00,
2013-05-22 23:52:00,64.0,63.7,29.61,West,270,2.2,-999.0,99,-99.99,,,0.24,Acu-Link.com,2013-05-23 03:52:00,